Home > Time Zones > World Clock > Weather > Iran > Rasht > Past weeks

Flag for Iran Weather past 2 weeks in Rasht, Iran

Now
48 °F

Passing clouds.


Feels Like: 46 °F
Forecast: 42 / 56 °F
Wind: 5 mph from East

Location: Rasht Airport

Current Time: Feb 28, 2015 at 11:12:03 PM

Latest Report: Feb 28, 2015 at 8:00 PM


Visibility: N/A

Pressure: 30.01 "Hg

Humidity: 87%

Dew point: 45 °F

Location of RashtLocation

Historic Weather in Rasht — Graph

°F

Rasht temperature yesterday

Maximum temperature yesterday: 54 °F (at 1:30 PM)
Minimum temperature yesterday: 39 °F (at 6:30 AM)
Average temperature yesterday: 48 °F

Past Weeks' High & Low Weather Summary

 TemperatureHumidityPressure
High55 °F (Feb 28, 12:30 PM)100% (Feb 15, 6:30 AM)30.54 "Hg (Feb 15, 6:30 AM)
Low34 °F (Feb 24, 6:30 AM)32% (Feb 23, 3:30 PM)29.86 "Hg (Feb 20, 7:00 AM)
Average46 °F86%30.18 "Hg
* Reported Feb 13 7:30 PM — Feb 28 8:00 PM, Rasht, Weather by CustomWeather, © 2015

Note: Actual official high and low records may vary slightly from our data, if they occured in-between our weather recording intervals... More about our weather records

Advertising

Rasht weather history for previous 24 hours

 ConditionsComfort  
Time TempWeatherWind HumidityBarometerVisibility
8:00 PM
Sat, Feb 28
48 °FPassing clouds.5 mph87%30.01 "HgN/A
7:30 PM48 °FPassing clouds.2 mph87%30.01 "HgN/A
7:00 PM50 °FPassing clouds.5 mph82%30.01 "HgN/A
6:30 PM50 °FScattered clouds.7 mph82%30.01 "HgN/A
6:00 PM50 °FScattered clouds.7 mph82%30.01 "HgN/A
5:30 PM52 °FScattered clouds.9 mph77%30.01 "HgN/A
5:00 PM52 °FScattered clouds.12 mph67%30.01 "HgN/A
4:30 PM54 °FScattered clouds.7 mph63%30.01 "HgN/A
4:00 PM55 °FScattered clouds.5 mph59%30.01 "HgN/A
3:30 PM55 °FScattered clouds.7 mph59%30.04 "HgN/A
3:00 PM55 °FScattered clouds.7 mph72%30.04 "HgN/A
2:30 PM55 °FScattered clouds.7 mph72%30.04 "HgN/A
2:00 PM54 °FScattered clouds.12 mph72%30.07 "HgN/A
1:30 PM54 °FScattered clouds.12 mph72%30.07 "HgN/A
1:00 PM55 °FScattered clouds.12 mph55%30.09 "HgN/A
12:30 PM55 °FScattered clouds.9 mph55%30.09 "HgN/A
12:00 PM52 °FScattered clouds.5 mph67%30.12 "HgN/A
11:30 AM52 °FScattered clouds.2 mph67%30.12 "HgN/A
11:00 AM50 °FScattered clouds.7 mph71%30.18 "HgN/A
10:30 AM50 °FPassing clouds.2 mph71%30.18 "HgN/A
10:00 AM46 °FPassing clouds.No wind82%30.18 "Hg5 mi
9:30 AM46 °FSunny.5 mph82%30.18 "Hg4 mi
9:00 AM41 °FFog.No wind93%30.21 "Hg3 mi
8:30 AM41 °FFog.No wind93%30.21 "Hg3 mi
8:00 AM37 °FFog.2 mph100%30.21 "Hg2 mi
7:30 AM37 °FFog.No wind100%30.21 "Hg2 mi
7:00 AM36 °FFog.5 mph100%30.21 "Hg2 mi
6:30 AM36 °FClear.No wind93%30.21 "Hg4 mi
6:00 AM36 °FClear.No wind100%30.21 "Hg4 mi
11:30 PM
Fri, Feb 27
41 °FClear.No wind100%30.33 "Hg4 mi
Weather by CustomWeather, © 2015

See weather overviewHow to use our weather pages